www.pogodaiklimat.ru

Погода и климат >> Архив погоды >> Беларусь >> Марьина Горка


ПОГОДА в Марьиной Горке

  • Прогноз погоды в Марьиной Горке
  • Монитор погоды в Марьиной Горке
  • Климат города

АРХИВ ПОГОДЫ в Марьиной Горке

Время (UTC), дата Ветер
(напр.,м/с)
 
Видим.   Явления Облачность Т
(С)
Тd
(С)
f
(%)
Тe
(С)
Тes
(С)
Комфортность P
(гПа)
Po
(гПа)
Тmin
(С)
Tmax
(С)
R
(мм)
R24
(мм)
S
(см)
09 14.11 З 3 8000 м дымка 10/8 300 м
[St As op Ci fib]
+1.6 +1.0 96 -3 -3 1016.7 994.6
12 14.11 З 3 9000 м дымка 10/6 300 м
[St As op]
+2.4 +1.5 94 -2 -2 1018.3 996.3
15 14.11 З 1 8000 м дымка 10/10 300 м
[St]
+1.7 +0.5 92 -0 -0 1020.4 998.3
18 14.11 ЮЗ 1 7000 м дымка 10/10 300 м
[St]
+1.4 +0.4 93 -1 -1 1021.5 999.4 +2.7
21 14.11 ЮЗ 2 7000 м дымка 10/10 300 м
[St]
+1.2 +0.3 94 -2 -2 1022.0 999.9
00 15.11 ЮЗ 2 6000 м дымка 10/10 300 м
[St]
+1.7 +1.1 96 -2 -2 1022.0 999.9
03 15.11 ЮЗ 2 6000 м дымка 9/9 600 м
[Sc]
+0.9 +0.2 95 -3 -3 1021.8 999.6
06 15.11 ЮЗ 4 9000 м дымка 9/5 600 м
[Sc Ac und]
+1.1 -0.2 91 -4 -4 1021.5 999.4 +0.6
09 15.11 ЮЗ 4 8000 м дымка 9/6 600 м
[Sc Ac und]
+2.2 +1.0 92 -3 -3 1022.1 1000.0
12 15.11 ЮЗ 3 6000 м слабый дождь 10/8 300 м
[Frnb As op]
+3.4 +2.5 94 -1 -1 1022.2 1000.2
15 15.11 ЮЗ 4 4000 м в посл. час дождь 10/8 300 м
[St As op]
+3.5 +3.2 98 -1 -1 1022.3 1000.4
18 15.11 ЮЗ 3 4500 м дымка {дождь} 10/8 300 м
[St As op]
+4.0 +3.6 97 0 0 1022.6 1000.7 +4.0 0.5
21 15.11 З 3 4800 м дымка 10/8 300 м
[St As op]
+4.2 +3.6 96 0 0 1022.7 1000.8
00 16.11 ЮЗ 4 6000 м дымка 10/8 300 м
[St As op]
+4.6 +3.9 95 0 0 1022.8 1000.9
03 16.11 З 4 6000 м в посл. час дождь 10/6 300 м
[St As op]
+4.8 +3.9 94 0 0 1023.1 1001.2
06 16.11 З 4 5000 м дымка {дождь} 9/8 300 м
[Sc Ac und]
+4.7 +4.1 96 0 0 1024.2 1002.3 +4.0 0.1
09 16.11 З 3 10 км 9/3 600 м
[Sc Ac und Ci fib]
+5.5 +4.1 91 +2 +3 1025.4 1003.5
12 16.11 З 2 16 км 8/6 600 м
[Sc Ac und]
+6.1 +3.1 81 +4 +4 1025.7 1003.9
15 16.11 З 1 16 км 9/8 600 м
[Sc Ac und]
+5.3 +1.4 76 +4 +4 1026.1 1004.2
18 16.11 ЮЗ 2 10 км ясно +2.5 +1.2 91 -1 -1 1026.4 1004.3 +6.9
21 16.11 ЮЗ 1 2300 м дымка ясно +0.8 +0.7 99 -1 -1 1026.7 1004.4
00 17.11 ЮЗ 1 3100 м дымка 9/0
[Ac und]
+1.3 +1.0 98 -1 -1 1026.3 1004.1
03 17.11 Ю 1 5000 м дымка 9/5 600 м
[Sc Ac und]
+1.8 +1.4 97 -0 -0 1025.0 1002.9
06 17.11 Ю 2 500 м туман ?/? +2.3 +2.3 100 -1 -1 1024.2 1002.1 +0.4
09 17.11 Ю 1 5000 м дымка {туман} 10/10 200 м
[St]
+2.6 +2.3 98 +1 +1 1023.5 1001.5
12 17.11 ЮЗ 3 10 км {туман} 10/8 300 м
[St As op]
+3.3 +0.9 84 -1 -1 1022.2 1000.2
15 17.11 ЮЗ 2 10 км 8/0
[Ac und Ci fib]
+1.7 +0.2 90 -2 -2 1021.4 999.3
18 17.11 ЮЗ 3 9000 м дымка 10/0
[As op]
+0.8 -0.1 94 -4 -4 1021.0 998.9 +3.5
21 17.11 ЮЗ 2 7000 м в посл. час снег 10/4 300 м
[St As op]
+1.0 +0.4 96 -3 -3 1020.9 998.8
00 18.11 ЮЗ 1 7000 м дымка {снег} 10/4 300 м
[St As op]
+1.5 +0.8 95 -1 -1 1020.4 998.3
03 18.11 Ю 1 7000 м дымка 10/5 300 м
[St As op]
+1.7 +1.1 96 -0 -0 1019.4 997.4
06 18.11 Ю 1 4000 м дымка 9/8 600 м
[Sc Ac und]
+0.8 +0.5 98 -1 -1 1019.4 997.3 +0.6 0.0
09 18.11 ЮЗ 1 4300 м дымка 9/8 300 м
[Sc Ac und]
+2.1 +2.0 99 0 0 1018.6 996.6
12 18.11 ЮЗ 1 6000 м дымка 10/8 300 м
[St As op]
+3.2 +2.3 94 +2 +2 1016.3 994.5
15 18.11 Ю 1 6000 м дымка 9/6 300 м
[Sc Ac und]
+2.5 +1.9 96 +1 +1 1014.9 993.0
18 18.11 ЮЗ 1 5000 м дымка 9/3 300 м
[Sc Ac und]
+1.0 +0.7 98 -1 -1 1013.7 991.7 +3.3
21 18.11 штиль 0 1100 м дымка 8/0
[Ac und]
-0.8 -0.9 99 -2 -2 1012.2 990.1
00 19.11 ЮЗ 1 1700 м дымка {туман} 9/0
[Ac und]
-0.6 -0.9 98 -3 -3 1010.5 988.5
03 19.11 Ю 1 2300 м дымка 9/0
[Ac und]
-0.2 -0.5 98 -2 -2 1008.3 986.3
06 19.11 Ю 1 4100 м в посл. час снег 10/8 300 м
[St As op]
+0.7 +0.4 98 -1 -1 1006.6 984.8 -1.1 0.5
09 19.11 Ю 2 7000 м дымка 9/8 300 м
[Sc Ac und]
+2.4 +1.7 95 -1 -1 1005.9 984.2
12 19.11 ЮЗ 3 5000 м дымка {дождь} 10/8 300 м
[St As op]
+2.3 +1.7 96 -2 -2 1005.1 983.4
15 19.11 ЮЗ 3 6000 м слабый дождь 10/6 300 м
[Frnb As op]
+1.8 +1.1 95 -3 -3 1005.7 984.0
18 19.11 ЮЗ 3 6000 м дымка {дождь} 10/5 300 м
[St As op]
+2.0 +1.3 95 -2 -2 1006.2 984.5 +2.6 0.3
21 19.11 Ю 2 7000 м дымка 9/5 300 м
[Sc Ac und]
+1.9 +0.9 93 -2 -2 1006.8 985.1
00 20.11 Ю 2 7000 м дымка 9/5 300 м
[Sc Ac und]
+1.8 +0.8 93 -2 -2 1006.7 984.9
03 20.11 Ю 1 7000 м дымка 9/6 600 м
[Sc Ac und]
+1.4 +0.4 93 -1 -1 1007.0 985.2
06 20.11 Ю 1 9000 м дымка 9/9 600 м
[Sc]
+0.9 -0.1 93 -1 -1 1007.6 985.8 +0.9
09 20.11 Ю 2 10 км 9/9 600 м
[Sc]
+2.8 +0.7 86 -0 -0 1007.7 986.0
12 20.11 ЮЗ 1 10 км 9/9 600 м
[Sc]
+3.0 +0.7 85 +1 +2 1007.5 985.8
15 20.11 Ю 2 8000 м дымка 9/9 600 м
[Sc]
+2.7 +1.2 90 -1 -1 1007.5 985.8
18 20.11 Ю 1 5000 м слабый дождь {снег} 10/8 300 м
[Frnb As op]
+0.9 +0.6 98 -1 -1 1007.8 986.0 +3.5 1
21 20.11 ЮЗ 2 5000 м слабый снег {дождь} 10/8 300 м
[Frnb As op]
+0.7 +0.4 98 -3 -3 1007.8 985.9
00 21.11 З 1 4800 м слабый снег {дождь} 10/8 300 м
[Frnb As op]
+0.5 +0.4 99 -2 -2 1008.0 986.1
03 21.11 З 1 4200 м слабый снег 10/8 300 м
[Frnb As op]
+0.5 +0.4 99 -2 -2 1008.3 986.4

 

Местоположение метеостанции Марьина Горка (Минская область, Беларусь): широта 53.45 долгота 28.13 высота над уровнем моря 177 м.

В архиве по умолчанию представлена погода в Марьиной Горке за последнюю неделю. Архивные данные за месяц целиком и за предыдущие месяцы, начиная с января 2011 года, Вы можете получить, выбрав интересующий диапазон дат из раскрывающегося списка и нажав кнопку "Ввод!".

Внимание! Время в таблицах - всемирное. Для получения местного времени необходимо прибавить поправку, которая в Марьиной Горке равна 3 ч.

Смотрите также архив погоды в соседних городах и на ближайших метеорологических станциях:

Погода в Слуцке (Минская область, Беларусь) (61 км)
Погода в Минске (город Минск, Беларусь) (63 км)
Погода в Березино (Минская область, Беларусь) (71 км)
Погода в Бобруйске (Могилевская область, Беларусь) (72 км)
Погода в Кличеве (Могилевская область, Беларусь) (79 км)
Погода в Столбцах (Минская область, Беларусь) (93 км)
Погода в Борисове (Минская область, Беларусь) (94 км)
Погода в Октябре (Гомельская область, Беларусь) (104 км)
Погода в Воложине (Минская область, Беларусь) (128 км)
Погода в Ганцевичах (Брестская область, Беларусь) (137 км)

Пояснения к столбцам:

Ветер - указаны скорость ветра в м/с - средняя за 10 мин, порывы в срок и между сроками (в фигурных скобках) и направление, откуда дует ветер: С - северный, СВ - северо-восточный, В - восточный, ЮВ - юго-восточный, Ю - южный, ЮЗ - юго-западный, З - западный, СЗ - северо-западный.
Видимость - горизонтальная дальность видимости в метрах или километрах. При видимости от 1 до 10 км при отсутствии осадков обычно наблюдается дымка, при ухудшении видимости до 1 км и менее - туман. В сухую погоду видимость может ухудшаться дымом, пылью или мглою.
Явления - указаны атмосферные явления, наблюдавшиеся в срок или в последний час перед сроком; фигурными скобками обозначены явления, наблюдавшиеся между сроками (за 1-3 часа до срока); квадратными скобками обозначены град или гололедные отложения с указанием их диаметра в мм.
Облачность - указаны через наклонную черту общая и нижняя облачность в баллах и высота нижней границы облаков в метрах; квадратными скобками обозначены формы облаков: Ci - перистые, Cs - перисто-слоистые, Cc - перисто-кучевые, Ac - высококучевые, As - высокослоистые, Sc - слоисто-кучевые, Ns - слоисто-дождевые, Cu - кучевые, Cb - кучево-дождевые. Подробнее классификацию облаков см. в Атласе облаков (PDF).
T - Температура воздуха - температура, измеренная на высоте 2 м над землей.
Td - Температура точки росы - температура, при понижении до которой содержащийся в воздухе водяной пар достигнет насыщения.
f - Относительная влажность воздуха - влажноcть воздуха, измеренная на высоте 2 м над землей.
Te - Эффективная температура - температура, которую ощущает одетый по сезону человек в тени. Характеристика душности погоды. При расчете учитывается влияние влажности воздуха и скорости ветра на теплоощущения человека.
Tes - Эффективная температура на солнце - температура, которую ощущает человек, с поправкой на солнечный нагрев. Характеристика знойности погоды. Зависит от высоты солнца над горизонтом, облачности и скорости ветра. Ночью, в пасмурную погоду, а также при ветре 12 м/с и более поправка равна нулю.
P - Атмосферное давление - приведенное к уровню моря атмосферное давление.
Po - Атмосферное давление - измеренное на уровне метеостанции атмосферное давление.
Tmin - Минимальная температура - минимум температуры воздуха на высоте 2 м над землей.
Tmax - Максимальная температура - максимум температуры воздуха на высоте 2 м над землей.
R - Количество осадков - Количество выпавших осадков за период времени, мм. При наведении курсора мыши на число - период времени, за который выпало указанное количество осадков.
R24 - Количество осадков - Количество выпавших осадков за 24 часа, мм.
S - Снежный покров - Высота снежного покрова, см. При наведении курсора мыши на число - состояние снежного покрова и степень покрытия местности в баллах.